Regional Weather Roundup
Issued by NWS

Home | Current Version | Previous Version | Text Only | Print | Product List | Glossary Off
Versions: 1 2 3 4 5 6 7 8 9 10 11 12 13 14 15 16 17 18 19 20 21 22 23 24 25 26 27 28 29 30 31 32 33 34 35 36 37 38 39 40 41 42 43 44 45 46 47 48 49 50

000
ASUS43 KLMK 030302
RWRKY
KENTUCKY REGIONAL WEATHER ROUNDUP
NATIONAL WEATHER SERVICE LOUISVILLE KY
1100 PM EDT SAT MAY 02 2015

NOTE "FAIR" INDICATES FEW OR NO CLOUDS BELOW 12,000 FEET
WITH NO SIGNIFICANT WEATHER AND/OR OBSTRUCTIONS TO VISIBILITY.

KYZ001>023-026-027-061>063-070>075-030400-
WESTERN AND SOUTH CENTRAL KENTUCKY

CITY           SKY/WX    TMP DP  RH WIND       PRES   REMARKS
PADUCAH        PTCLDY    57  50  77 S3        30.05R
HENDERSON      MOCLDY    57  46  67 CALM      30.05S
OWENSBORO      MOCLDY    61  51  69 CALM      30.07S
HOPKINSVILLE   CLEAR     62  51  66 NE2       30.07R
BOWLING GREEN  PTCLDY    57  48  72 CALM      30.08S
GLASGOW        NOT AVBL
$$

KYZ024-025-028>034-038-045-046-053-030400-
NORTH CENTRAL KENTUCKY

CITY           SKY/WX    TMP DP  RH WIND       PRES   REMARKS
LOUISVILLE/SDF MOCLDY    66  45  46 SW3       30.08R
LOUISVILLE/LOU PTCLDY    62  46  55 CALM      30.08S
FORT KNOX      CLEAR     56  46  67 CALM      30.07S
$$

KYZ035>037-039>044-047>052-055>060-089>105-030400-
NORTHEAST KENTUCKY

CITY           SKY/WX    TMP DP  RH WIND       PRES   REMARKS
LEXINGTON      CLEAR     60  45  57 S6        30.10R
COVINGTON      PTCLDY    58  45  62 CALM      30.07S
FRANKFORT      PTCLDY    56  45  66 CALM      30.08R
$$

KYZ054-064>069-076>088-106>120-030400-
SOUTHEAST KENTUCKY

CITY           SKY/WX    TMP DP  RH WIND       PRES   REMARKS
JACKSON        CLEAR     63  35  35 CALM      30.12R
LONDON         CLEAR     55  44  66 CALM      30.11R
SOMERSET       NOT AVBL
MIDDLESBORO    CLEAR     50  46  83 CALM      30.13R
MONTICELLO     CLEAR     50  47  89 CALM      30.14R
$$



USA.gov is the U.S. government's official web portal to all federal, state and local government web resources and services.